Weather History for LHBP - September, 2013

Change the Weather History Date:

Tuesday, September 3, 2013

  Actual Average Record
Temperature  
Mean Temperature 68 °F -  
Max Temperature 75 °F 67 °F 89 °F (2012)
Min Temperature 59 °F 48 °F 44 °F (2001)
Cooling Degree Days 2    
Growing Degree Days 18 (Base 50)    
Moisture  
Dew Point 52 °F    
Average Humidity 61    
Maximum Humidity 77    
Minimum Humidity 44    
Precipitation  
Precipitation 0.00 in - - ()
Sea Level Pressure  
Sea Level Pressure 30.10 in    
Wind  
Wind Speed 17 mph ()    
Max Wind Speed 29 mph    
Max Gust Speed 37 mph    
Visibility 6.2 miles    
Events      
Averages and records for this station are not official NWS values.
T = Trace of Precipitation, MM = Missing Value Source: Averaged Metar Reports

Daily Weather History Graph

Daily Weather History Graph

Search for Another Location

Airport or City:

Trip Planner

Search our weather history database for the weather conditions in past years. The results will help you decide how hot, cold, wet, or windy it might be!

Date:

Astronomy

Sep. 03, 2013 Rise Set
Actual Time 6:04 AM CEST 7:19 PM CEST
Civil Twilight 5:32 AM CEST 7:50 PM CEST
Nautical Twilight 4:54 AM CEST 8:28 PM CEST
Astronomical Twilight 4:13 AM CEST 9:09 PM CEST
Moon 3:56 AM CEST (9/3) 5:58 PM CEST (9/3)
Length of Visible Light 14h 18m
Length of Day
13h 14m
Waning Crescent, 4% of the Moon is Illuminated
Sep 3
Waning Crescent
Sep 5
New
Sep 12
First Quarter
Sep 19
Full
Sep 27
Last Quarter

Hourly Weather History & Observations

Time (CEST) Temp. Dew Point Humidity Pressure Visibility Wind Dir Wind Speed Gust Speed Precip Events Conditions
12:00 AM 62.6 °F 46.4 °F 55% 30.12 in - SW 12.7 mph - N/A   Clear
12:30 AM 64.4 °F 44.6 °F 49% 30.12 in 6.2 mi West 16.1 mph - N/A   Scattered Clouds
1:00 AM 64.4 °F 44.6 °F 49% 30.09 in 6.2 mi West 13.8 mph - N/A   Scattered Clouds
1:30 AM 64.4 °F 44.6 °F 49% 30.09 in 6.2 mi West 15.0 mph - N/A   Scattered Clouds
2:00 AM 62.6 °F 44.6 °F 52% 30.09 in - West 21.9 mph - N/A   Clear
2:30 AM 62.6 °F 46.4 °F 55% 30.09 in 6.2 mi West 17.3 mph - N/A   Mostly Cloudy
3:00 AM 62.6 °F 46.4 °F 55% 30.09 in 6.2 mi West 16.1 mph - N/A   Mostly Cloudy
3:30 AM 62.6 °F 48.2 °F 59% 30.06 in 6.2 mi West 18.4 mph - N/A   Mostly Cloudy
4:00 AM 62.6 °F 48.2 °F 59% 30.09 in 6.2 mi West 17.3 mph 29.9 mph N/A   Mostly Cloudy
4:30 AM 62.6 °F 48.2 °F 59% 30.06 in 6.2 mi West 18.4 mph - N/A   Mostly Cloudy
5:00 AM 62.6 °F 50.0 °F 63% 30.06 in 6.2 mi West 18.4 mph - N/A   Scattered Clouds
5:30 AM 62.6 °F 50.0 °F 63% 30.06 in 6.2 mi WNW 20.7 mph - N/A   Mostly Cloudy
6:00 AM 62.6 °F 53.6 °F 72% 30.06 in 6.2 mi West 21.9 mph - N/A   Mostly Cloudy
6:30 AM 60.8 °F 53.6 °F 77% 30.06 in 6.2 mi WNW 23.0 mph - N/A   Mostly Cloudy
7:00 AM 60.8 °F 53.6 °F 77% 30.06 in - West 25.3 mph - N/A   Clear
7:30 AM 62.6 °F 53.6 °F 72% 30.06 in - WNW 20.7 mph - N/A   Clear
8:00 AM 64.4 °F 53.6 °F 68% 30.06 in - West 18.4 mph - N/A   Clear
8:30 AM 64.4 °F 53.6 °F 68% 30.06 in 6.2 mi West 20.7 mph - N/A   Mostly Cloudy
9:00 AM 64.4 °F 53.6 °F 68% 30.06 in 6.2 mi West 25.3 mph 36.8 mph N/A   Mostly Cloudy
9:30 AM 64.4 °F 55.4 °F 73% 30.09 in 6.2 mi WNW 27.6 mph - N/A   Mostly Cloudy
10:00 AM 66.2 °F 57.2 °F 73% 30.09 in 6.2 mi WNW 21.9 mph - N/A   Scattered Clouds
10:30 AM 68.0 °F 55.4 °F 64% 30.09 in 6.2 mi WNW 28.8 mph - N/A   Scattered Clouds
11:00 AM 68.0 °F 57.2 °F 68% 30.09 in 6.2 mi WNW 28.8 mph - N/A   Scattered Clouds
11:30 AM 69.8 °F 57.2 °F 64% 30.09 in 6.2 mi WNW 25.3 mph - N/A   Mostly Cloudy
12:00 PM 69.8 °F 57.2 °F 64% 30.09 in 6.2 mi WNW 25.3 mph 36.8 mph N/A   Mostly Cloudy
12:30 PM 73.4 °F 59.0 °F 61% 30.09 in 6.2 mi WNW 27.6 mph - N/A   Mostly Cloudy
1:00 PM 73.4 °F 59.0 °F 61% 30.09 in 6.2 mi WNW 21.9 mph - N/A   Mostly Cloudy
1:30 PM 71.6 °F 57.2 °F 60% 30.09 in 6.2 mi West 18.4 mph - N/A   Scattered Clouds
2:00 PM 71.6 °F 57.2 °F 60% 30.09 in 6.2 mi WNW 19.6 mph - N/A   Mostly Cloudy
2:30 PM 73.4 °F 59.0 °F 61% 30.09 in 6.2 mi WNW 19.6 mph 31.1 mph N/A   Scattered Clouds
3:00 PM 75.2 °F 59.0 °F 57% 30.09 in 6.2 mi WNW 23.0 mph - N/A   Scattered Clouds
3:30 PM 73.4 °F 55.4 °F 53% 30.09 in 6.2 mi WNW 20.7 mph - N/A   Partly Cloudy
4:00 PM 75.2 °F 53.6 °F 47% 30.09 in 6.2 mi WNW 24.2 mph 36.8 mph N/A   Partly Cloudy
4:30 PM 73.4 °F 53.6 °F 50% 30.09 in 6.2 mi WNW 28.8 mph - N/A   Scattered Clouds
5:00 PM 73.4 °F 50.0 °F 44% 30.09 in - NW 27.6 mph - N/A   Clear
5:30 PM 71.6 °F 50.0 °F 46% 30.09 in - WNW 24.2 mph - N/A   Clear
6:00 PM 71.6 °F 53.6 °F 53% 30.12 in - WNW 16.1 mph - N/A   Clear
6:30 PM 69.8 °F 51.8 °F 53% 30.12 in - WNW 21.9 mph - N/A   Clear
7:00 PM 68.0 °F 51.8 °F 56% 30.12 in - WNW 20.7 mph - N/A   Clear
7:30 PM 66.2 °F 51.8 °F 60% 30.15 in - West 17.3 mph - N/A   Clear
8:00 PM 66.2 °F 51.8 °F 60% 30.15 in - WNW 17.3 mph - N/A   Clear
8:30 PM 64.4 °F 51.8 °F 64% 30.18 in - WNW 15.0 mph - N/A   Clear
9:00 PM 62.6 °F 51.8 °F 68% 30.18 in - WNW 12.7 mph - N/A   Clear
9:30 PM 62.6 °F 51.8 °F 68% 30.18 in - NW 5.8 mph - N/A   Clear
10:00 PM 62.6 °F 51.8 °F 68% 30.21 in - NW 11.5 mph - N/A   Clear
10:30 PM 62.6 °F 51.8 °F 68% 30.21 in - NW 15.0 mph - N/A   Clear
11:00 PM 60.8 °F 51.8 °F 72% 30.21 in - NW 11.5 mph - N/A   Clear
11:30 PM 59.0 °F 51.8 °F 77% 30.21 in - NW 4.6 mph - N/A   Clear